Location: Roland
(31.1349°N, 85.4372°W)
Time: 11:28:13
(UTC+00:00)

Explorer 11/Cluster Stage 4 - Pass Details

Date: 28 April 2021
Orbit: 467 x 1257 km, 28.8° (Epoch: 15 May)

Event Time Altitude Azimuth Distance (km) Brightness Sun altitude
Exits shadow 08:33:09 16° 107° (ESE) 1,392 8.2 -28.3°
Drops below altitude 10° 08:34:02 10° 100° (E) 1,691 8.7 -28.2°
Sets 08:36:13 0° 90° (E) 2,523 9.9 -27.8°
